period_start,C,m1,H,J0,J1,J2,J3,J4,J5,JA,JB,JC,JD,JJ,JK,JN,#
2016-12-29 00:02:24,0.17,3.84,0.00,19.85,23.95,27.66,14.68,48.22,1014.02,2038.98,2315.70,2233.38,2540.48,599.79,600.52,11.65,0000 0000 0000 0000 000000
2016-12-29 00:07:26,0.18,3.85,0.00,19.85,23.95,27.66,14.64,48.23,1014.10,2038.95,2313.40,2231.69,2538.54,599.78,600.73,11.70,0000 0000 0000 0000 000000
2016-12-29 00:12:27,0.18,3.86,0.00,19.87,23.97,27.67,14.73,48.23,1013.97,2038.87,2310.99,2229.94,2536.58,600.35,601.21,11.75,0000 0000 0000 0000 000000
2016-12-29 00:17:28,0.16,3.87,0.00,19.87,23.97,27.68,14.68,48.30,1013.74,2038.73,2308.54,2228.22,2534.58,599.60,600.16,11.80,0000 0000 0000 0000 000000
2016-12-29 00:22:30,0.17,3.88,0.00,19.88,23.99,27.71,14.65,48.14,1013.72,2038.52,2306.20,2226.47,2532.55,600.10,600.70,11.85,0000 0000 0000 0000 000000
2016-12-29 00:27:31,0.18,3.89,0.00,19.89,24.00,27.70,14.72,48.11,1013.72,2038.30,2303.85,2224.67,2530.53,600.56,601.18,11.90,0000 0000 0000 0000 000000
2016-12-29 00:32:32,0.17,3.89,0.00,19.92,24.01,27.75,14.62,48.15,1013.71,2038.15,2301.51,2222.94,2528.54,600.05,600.63,11.95,0000 0000 0000 0000 000000
2016-12-29 00:37:33,0.18,3.90,0.00,19.93,24.02,27.74,14.66,48.17,1013.69,2038.08,2299.18,2221.19,2526.52,599.92,600.55,12.00,0000 0000 0000 0000 000000
2016-12-29 00:42:35,0.19,3.91,0.00,19.92,24.03,27.75,14.70,48.18,1013.69,2038.03,2296.77,2219.49,2524.51,599.90,600.45,12.05,0000 0000 0000 0000 000000
2016-12-29 00:47:36,0.19,3.92,0.00,19.92,24.05,27.77,14.69,48.23,1013.69,2038.04,2294.39,2217.73,2522.55,599.77,600.35,12.10,0000 0000 0000 0000 000000
2016-12-29 00:52:37,0.19,3.93,0.00,19.95,24.05,27.76,14.69,48.17,1013.69,2038.01,2291.98,2215.96,2520.52,600.25,600.81,12.15,0000 0000 0000 0000 000000
2016-12-29 00:57:38,0.19,3.94,0.00,19.97,24.06,27.79,14.65,48.15,1013.60,2038.00,2289.59,2214.20,2518.51,599.95,600.43,12.21,0000 0000 0000 0000 000000
2016-12-29 01:02:39,0.20,3.95,0.00,19.97,24.07,27.78,14.67,48.23,1013.52,2038.00,2287.19,2212.47,2516.49,600.33,600.65,12.26,0000 0000 0000 0000 000000
2016-12-29 01:07:41,0.19,3.96,0.00,19.97,24.07,27.78,14.72,48.23,1013.28,2038.00,2284.77,2210.72,2514.54,600.14,600.30,12.31,0000 0000 0000 0000 000000
2016-12-29 01:12:42,0.18,3.97,0.00,19.97,24.09,27.80,14.61,48.17,1013.23,2038.00,2282.44,2208.97,2512.59,599.56,599.75,12.36,0000 0000 0000 0000 000000
2016-12-29 01:17:43,0.20,3.98,0.00,19.98,24.10,27.80,14.73,48.13,1013.20,2038.00,2280.11,2207.25,2510.62,600.32,600.48,12.41,0000 0000 0000 0000 000000
2016-12-29 01:22:44,0.19,3.99,0.00,20.00,24.11,27.83,14.69,48.09,1013.14,2038.00,2277.74,2205.50,2508.66,600.30,600.41,12.46,0000 0000 0000 0000 000000
2016-12-29 01:27:45,0.19,4.00,0.00,20.01,24.12,27.82,14.61,48.22,1013.16,2038.00,2275.41,2203.76,2506.69,599.87,599.92,12.51,0000 0000 0000 0000 000000
2016-12-29 01:32:47,0.18,4.01,0.00,20.00,24.12,27.81,14.72,48.23,1013.19,2037.99,2273.11,2202.08,2504.75,600.04,600.14,12.56,0000 0000 0000 0000 000000
2016-12-29 01:37:47,0.19,4.02,0.00,20.00,24.15,27.83,14.64,48.24,1013.17,2037.98,2270.82,2200.47,2502.82,599.74,599.83,12.61,0000 0000 0000 0000 000000
2016-12-29 01:42:48,0.20,4.03,0.00,20.01,24.15,27.84,14.65,48.25,1012.98,2037.97,2268.48,2198.71,2500.89,599.94,599.87,12.66,0000 0000 0000 0000 000000
2016-12-29 01:47:49,0.18,4.04,0.00,20.03,24.16,27.87,14.65,48.21,1012.76,2037.96,2266.21,2197.01,2498.95,599.85,599.59,12.71,0000 0000 0000 0000 000000
2016-12-29 01:52:50,0.17,4.05,0.00,20.03,24.17,27.85,14.70,48.28,1012.72,2037.92,2263.95,2195.37,2497.03,600.18,599.97,12.76,0000 0000 0000 0000 000000
2016-12-29 01:57:52,0.19,4.06,0.00,20.05,24.18,27.88,14.70,48.30,1012.72,2037.85,2261.58,2193.67,2495.30,600.25,599.88,12.81,0000 0000 0000 0000 000000
2016-12-29 02:02:53,0.15,4.07,0.00,20.04,24.20,27.87,14.63,48.27,1012.71,2037.63,2259.40,2192.03,2493.49,599.80,599.53,12.86,0000 0000 0000 0000 000000
2016-12-29 02:07:54,0.17,4.07,0.00,20.07,24.20,27.87,14.63,48.34,1012.71,2037.53,2257.26,2190.52,2491.68,599.90,599.55,12.91,0000 0000 0000 0000 000000
2016-12-29 02:12:56,0.16,4.09,0.00,20.06,24.22,27.90,14.70,48.27,1012.71,2037.46,2255.13,2188.96,2490.00,600.24,599.98,12.96,0000 0000 0000 0000 000000
2016-12-29 02:17:57,0.14,4.09,0.00,20.07,24.22,27.92,14.80,48.45,1012.71,2037.33,2253.08,2187.54,2488.40,600.41,600.09,13.01,0000 0000 0000 0000 000000
2016-12-29 02:22:58,0.15,4.10,0.00,20.07,24.22,27.90,14.63,48.52,1012.71,2037.11,2251.00,2185.97,2486.66,599.93,599.60,13.06,0000 0000 0000 0000 000000
2016-12-29 02:28:00,0.17,4.11,0.00,20.07,24.25,27.88,14.66,48.33,1012.43,2037.07,2248.89,2184.47,2484.88,599.96,599.42,13.11,0000 0000 0000 0000 000000
2016-12-29 02:33:01,0.15,4.12,0.00,20.07,24.25,27.92,14.70,48.33,1012.29,2037.04,2246.86,2183.00,2483.27,600.48,599.94,13.16,0000 0000 0000 0000 000000
2016-12-29 02:38:02,0.16,4.12,0.00,20.08,24.25,27.91,14.64,48.46,1012.27,2037.02,2244.98,2181.64,2481.72,600.17,599.57,13.21,0000 0000 0000 0000 000000
2016-12-29 02:43:03,0.14,4.13,0.00,20.11,24.27,27.84,14.62,48.38,1012.26,2037.02,2243.10,2180.28,2480.19,600.00,599.32,13.26,0000 0000 0000 0000 000000
2016-12-29 02:48:05,0.15,4.14,0.00,20.10,24.27,27.92,14.67,48.38,1012.29,2037.01,2241.32,2178.92,2478.65,600.07,599.36,13.31,0000 0000 0000 0000 000000
2016-12-29 02:53:06,0.15,4.15,0.00,20.10,24.28,27.96,14.63,48.36,1012.33,2037.01,2239.60,2177.63,2477.14,599.93,599.27,13.36,0000 0000 0000 0000 000000
2016-12-29 02:58:08,0.14,4.16,0.00,20.11,24.30,27.95,14.67,48.37,1012.47,2037.01,2237.88,2176.40,2475.68,600.04,599.48,13.41,0000 0000 0000 0000 000000
2016-12-29 03:03:09,0.12,4.16,0.00,20.13,24.30,27.96,14.68,48.34,1012.63,2037.01,2236.15,2175.12,2474.23,600.12,599.55,13.46,0000 0000 0000 0000 000000
2016-12-29 03:08:10,0.18,4.17,0.00,20.11,24.31,27.98,14.67,48.26,1012.69,2037.00,2234.32,2173.77,2472.62,600.07,599.50,13.51,0000 0000 0000 0000 000000
2016-12-29 03:13:12,0.16,4.18,0.00,20.11,24.32,27.99,14.65,48.38,1012.58,2037.00,2232.33,2172.36,2470.83,600.12,599.63,13.56,0000 0000 0000 0000 000000
2016-12-29 03:18:13,0.19,4.19,0.00,20.13,24.32,27.97,14.60,48.25,1012.33,2037.00,2230.22,2170.75,2469.13,599.60,598.92,13.61,0000 0000 0000 0000 000000
2016-12-29 03:23:14,0.16,4.20,0.00,20.15,24.34,27.99,14.58,48.23,1012.24,2036.99,2228.18,2169.30,2467.39,599.71,598.92,13.66,0000 0000 0000 0000 000000
2016-12-29 03:28:16,0.18,4.21,0.00,20.15,24.35,28.01,14.67,48.24,1012.23,2036.99,2226.17,2167.82,2465.74,600.02,599.27,13.71,0000 0000 0000 0000 000000
2016-12-29 03:33:17,0.17,4.22,0.00,20.14,24.35,28.02,14.66,48.26,1012.22,2036.98,2224.13,2166.28,2464.02,600.14,599.39,13.76,0000 0000 0000 0000 000000
2016-12-29 03:38:18,0.18,4.22,0.00,20.15,24.37,28.03,14.65,48.23,1012.22,2036.97,2222.08,2164.74,2462.21,600.14,599.36,13.81,0000 0000 0000 0000 000000
2016-12-29 03:43:19,0.16,4.23,0.00,20.17,24.37,28.01,14.74,48.28,1012.12,2036.97,2220.02,2163.26,2460.49,600.47,599.66,13.86,0000 0000 0000 0000 000000
2016-12-29 03:48:21,0.20,4.24,0.00,20.18,24.37,28.02,14.58,48.20,1011.91,2036.98,2217.83,2161.70,2458.76,599.69,598.75,13.91,0000 0000 0000 0000 000000
2016-12-29 03:53:22,0.15,4.25,0.00,20.17,24.39,28.04,14.60,48.29,1012.02,2036.95,2215.77,2160.16,2457.04,600.12,599.13,13.96,0000 0000 0000 0000 000000
2016-12-29 03:58:24,0.18,4.26,0.00,20.19,24.40,28.03,14.69,48.33,1011.94,2036.92,2213.71,2158.68,2455.32,600.53,599.52,14.01,0000 0000 0000 0000 000000
2016-12-29 04:03:25,0.15,4.27,0.00,20.20,24.40,28.04,14.67,48.40,1011.88,2036.76,2211.64,2157.13,2453.52,600.27,599.20,14.06,0000 0000 0000 0000 000000
2016-12-29 04:08:26,0.17,4.28,0.00,20.21,24.41,28.07,14.64,48.31,1011.92,2036.73,2209.55,2155.61,2451.76,599.98,598.96,14.11,0000 0000 0000 0000 000000
2016-12-29 04:13:28,0.13,4.28,0.00,20.21,24.42,28.06,14.64,48.30,1011.77,2036.38,2207.43,2154.02,2450.00,600.09,598.93,14.16,0000 0000 0000 0000 000000
2016-12-29 04:18:29,0.18,4.29,0.00,20.21,24.42,28.04,14.64,48.26,1011.74,2036.26,2205.23,2152.53,2448.26,600.38,599.11,14.21,0000 0000 0000 0000 000000
2016-12-29 04:23:30,0.17,4.30,0.00,20.20,24.43,28.08,14.65,48.33,1011.73,2036.25,2203.25,2151.02,2446.59,600.15,598.74,14.26,0000 0000 0000 0000 000000
2016-12-29 04:28:31,0.15,4.31,0.00,20.24,24.45,28.07,14.60,48.26,1011.73,2036.13,2201.22,2149.57,2444.85,600.03,598.67,14.31,0000 0000 0000 0000 000000
2016-12-29 04:33:32,0.17,4.32,0.00,20.24,24.45,28.08,14.67,48.29,1011.73,2036.08,2199.19,2147.99,2443.12,600.04,598.79,14.36,0000 0000 0000 0000 000000
2016-12-29 04:38:34,0.17,4.33,0.00,20.24,24.45,28.10,14.62,48.27,1011.73,2036.04,2197.14,2146.49,2441.41,600.00,598.73,14.41,0000 0000 0000 0000 000000
2016-12-29 04:43:35,0.17,4.34,0.00,20.24,24.47,28.12,14.59,48.27,1011.71,2036.01,2195.17,2144.98,2439.70,599.80,598.61,14.46,0000 0000 0000 0000 000000
2016-12-29 04:48:37,0.18,4.34,0.00,20.25,24.47,28.11,14.65,48.33,1011.62,2036.01,2193.11,2143.55,2437.96,599.92,598.65,14.51,0000 0000 0000 0000 000000
2016-12-29 04:53:38,0.16,4.35,0.00,20.26,24.47,28.12,14.62,48.21,1011.42,2036.00,2191.12,2142.02,2436.35,599.85,598.38,14.57,0000 0000 0000 0000 000000
2016-12-29 04:58:39,0.18,4.36,0.00,20.27,24.49,28.11,14.59,48.30,1011.67,2036.00,2189.20,2140.58,2434.63,599.65,598.30,14.62,0000 0000 0000 0000 000000
2016-12-29 05:03:40,0.17,4.37,0.00,20.28,24.50,28.13,14.65,48.30,1011.69,2036.00,2187.12,2139.10,2432.94,599.71,598.29,14.67,0000 0000 0000 0000 000000
2016-12-29 05:08:42,0.18,4.38,0.00,20.28,24.50,28.15,14.63,48.38,1011.66,2036.00,2184.99,2137.58,2431.35,600.13,598.73,14.72,0000 0000 0000 0000 000000
2016-12-29 05:13:43,0.17,4.39,0.00,20.29,24.51,28.18,14.64,48.26,1011.72,2036.00,2183.07,2136.07,2429.62,599.69,598.34,14.77,0000 0000 0000 0000 000000
2016-12-29 05:18:44,0.18,4.40,0.00,20.31,24.52,28.18,14.58,48.33,1011.72,2035.99,2181.10,2134.61,2427.89,600.13,598.53,14.82,0000 0000 0000 0000 000000
2016-12-29 05:23:45,0.16,4.41,0.00,20.31,24.52,28.17,14.63,48.26,1011.72,2035.99,2179.14,2133.10,2426.17,600.02,598.53,14.87,0000 0000 0000 0000 000000
2016-12-29 05:28:47,0.19,4.42,0.00,20.31,24.53,28.10,14.67,48.25,1011.72,2035.99,2177.07,2131.62,2424.53,600.19,598.79,14.92,0000 0000 0000 0000 000000
2016-12-29 05:33:48,0.17,4.43,0.00,20.30,24.55,28.16,14.60,48.27,1011.68,2035.97,2175.00,2130.14,2422.86,599.90,598.54,14.97,0000 0000 0000 0000 000000
2016-12-29 05:38:49,0.24,4.43,0.00,20.31,24.55,28.20,14.60,48.23,1011.59,2035.97,2172.35,2128.31,2420.76,600.10,598.60,15.02,0000 0000 0000 0000 000000
2016-12-29 05:43:50,0.26,4.45,0.00,20.33,24.56,28.18,14.65,48.43,1011.50,2035.98,2169.14,2126.18,2418.33,599.69,598.13,15.07,0000 0000 0000 0000 000000
2016-12-29 05:48:52,0.19,4.46,0.00,20.33,24.57,28.19,14.67,48.42,1011.31,2035.97,2166.75,2124.56,2416.49,599.93,598.29,15.12,0000 0000 0000 0000 000000
2016-12-29 05:53:53,0.19,4.47,0.00,20.34,24.57,28.21,14.59,48.23,1011.29,2035.92,2164.40,2122.91,2414.70,600.28,598.59,15.17,0000 0000 0000 0000 000000
2016-12-29 05:58:54,0.18,4.48,0.00,20.35,24.58,28.21,14.57,48.30,1011.26,2035.91,2162.41,2121.51,2413.03,599.81,598.11,15.22,0000 0000 0000 0000 000000
2016-12-29 06:03:55,0.16,4.49,0.00,20.36,24.60,28.24,14.65,48.33,1011.27,2035.89,2160.63,2120.05,2411.30,599.83,598.21,15.27,0000 0000 0000 0000 000000
2016-12-29 06:08:57,0.16,4.50,0.00,20.38,24.60,28.23,14.63,48.35,1011.26,2035.80,2158.68,2118.64,2409.61,600.19,598.38,15.32,0000 0000 0000 0000 000000
2016-12-29 06:13:58,0.13,4.50,0.00,20.37,24.60,28.23,14.62,48.27,1011.25,2035.63,2156.83,2117.35,2408.03,600.14,598.27,15.37,0000 0000 0000 0000 000000
2016-12-29 06:18:59,0.12,4.51,0.00,20.39,24.62,28.23,14.63,48.33,1011.25,2035.22,2155.00,2115.97,2406.58,600.05,598.19,15.42,0000 0000 0000 0000 000000
2016-12-29 06:24:01,0.14,4.52,0.00,20.40,24.62,28.15,14.52,48.28,1011.25,2035.17,2153.30,2114.74,2405.19,599.78,597.97,15.47,0000 0000 0000 0000 000000
2016-12-29 06:29:02,0.15,4.52,0.00,20.37,24.62,28.23,14.58,48.30,1011.24,2035.09,2151.60,2113.53,2403.79,599.82,598.05,15.52,0000 0000 0000 0000 000000
2016-12-29 06:34:04,0.14,4.53,0.00,20.37,24.62,28.14,14.62,48.29,1011.24,2035.05,2149.82,2112.27,2402.39,599.94,598.05,15.57,0000 0000 0000 0000 000000
2016-12-29 06:39:05,0.14,4.54,0.00,20.39,24.62,28.13,14.57,48.23,1011.24,2035.07,2147.99,2111.07,2400.95,599.74,597.94,15.62,0000 0000 0000 0000 000000
2016-12-29 06:44:06,0.16,4.55,0.00,20.40,24.63,28.26,14.65,48.32,1011.24,2035.04,2146.24,2109.84,2399.58,600.09,598.19,15.67,0000 0000 0000 0000 000000
2016-12-29 06:49:08,0.16,4.56,0.00,20.41,24.65,28.26,14.72,48.38,1011.24,2035.05,2144.52,2108.56,2397.99,600.41,598.53,15.72,0000 0000 0000 0000 000000
2016-12-29 06:54:09,0.15,4.56,0.00,20.42,24.65,28.24,14.57,48.34,1011.24,2035.03,2142.77,2107.32,2396.50,600.06,598.21,15.77,0000 0000 0000 0000 000000
2016-12-29 06:59:10,0.15,4.57,0.00,20.44,24.65,28.23,14.64,48.35,1011.24,2035.04,2140.91,2105.99,2395.03,599.98,598.13,15.82,0000 0000 0000 0000 000000
2016-12-29 07:04:11,0.16,4.58,0.00,20.42,24.67,28.24,14.57,48.31,1011.24,2035.02,2139.20,2104.64,2393.51,600.11,598.14,15.87,0000 0000 0000 0000 000000
2016-12-29 07:09:13,0.14,4.59,0.00,20.43,24.67,28.25,14.60,48.36,1011.20,2035.01,2137.48,2103.44,2392.04,599.98,598.04,15.92,0000 0000 0000 0000 000000
2016-12-29 07:14:14,0.15,4.60,0.00,20.43,24.67,28.29,14.63,48.38,1011.17,2035.00,2135.72,2102.16,2390.62,600.05,598.07,15.97,0000 0000 0000 0000 000000
2016-12-29 07:19:15,0.16,4.60,0.00,20.44,24.68,28.30,14.63,48.49,1011.14,2035.00,2133.97,2100.84,2389.18,599.92,597.90,16.02,0000 0000 0000 0000 000000
2016-12-29 07:24:17,0.16,4.61,0.00,20.44,24.69,28.30,14.65,48.30,1011.17,2035.00,2132.24,2099.59,2387.72,600.05,598.04,16.07,0000 0000 0000 0000 000000
2016-12-29 07:29:18,0.14,4.62,0.00,20.44,24.70,28.30,14.61,48.42,1011.05,2035.00,2130.56,2098.41,2386.40,600.13,598.01,16.12,0000 0000 0000 0000 000000
2016-12-29 07:34:19,0.14,4.63,0.00,20.46,24.70,28.29,14.53,48.34,1010.85,2035.00,2128.88,2097.16,2384.93,600.09,597.81,16.17,0000 0000 0000 0000 000000
2016-12-29 07:39:20,0.15,4.63,0.00,20.46,24.70,28.29,14.68,48.45,1010.81,2035.00,2127.27,2095.92,2383.55,600.32,598.18,16.22,0000 0000 0000 0000 000000
2016-12-29 07:44:22,0.16,4.64,0.00,20.47,24.70,28.31,14.61,48.30,1010.80,2035.00,2125.62,2094.65,2382.05,599.76,597.51,16.27,0000 0000 0000 0000 000000
2016-12-29 07:49:23,0.16,4.65,0.00,20.47,24.72,28.33,14.59,48.32,1010.89,2035.00,2123.86,2093.46,2380.67,600.14,597.93,16.32,0000 0000 0000 0000 000000
2016-12-29 07:54:24,0.12,4.66,0.00,20.49,24.72,28.34,14.60,48.43,1010.94,2035.00,2122.25,2092.25,2379.30,600.04,597.78,16.37,0000 0000 0000 0000 000000
2016-12-29 07:59:25,0.15,4.66,0.00,20.51,24.72,28.33,14.61,48.33,1010.93,2034.98,2120.59,2090.95,2377.83,599.65,597.30,16.42,0000 0000 0000 0000 000000
2016-12-29 08:04:27,0.15,4.67,0.00,20.50,24.72,28.34,14.59,48.26,1011.07,2034.99,2118.95,2089.82,2376.55,599.99,597.82,16.47,0000 0000 0000 0000 000000
2016-12-29 08:09:28,0.16,4.68,0.00,20.49,24.72,28.33,14.60,48.32,1011.13,2034.97,2117.24,2088.58,2375.00,599.98,597.88,16.52,0000 0000 0000 0000 000000
2016-12-29 08:14:29,0.16,4.69,0.00,20.50,24.73,28.32,14.63,48.34,1011.08,2034.97,2115.39,2087.21,2373.52,599.95,597.90,16.57,0000 0000 0000 0000 000000
2016-12-29 08:19:31,0.19,4.70,0.00,20.50,24.74,28.25,14.63,48.23,1011.22,2034.96,2113.40,2085.75,2371.88,600.20,598.17,16.62,0000 0000 0000 0000 000000
2016-12-29 08:24:32,0.16,4.71,0.00,20.51,24.75,28.34,14.58,48.22,1011.20,2034.94,2111.41,2084.33,2370.24,599.65,597.48,16.67,0000 0000 0000 0000 000000
2016-12-29 08:29:33,0.19,4.71,0.00,20.51,24.75,28.37,14.59,48.22,1011.16,2034.86,2109.46,2082.79,2368.51,599.82,597.69,16.72,0000 0000 0000 0000 000000
2016-12-29 08:34:34,0.16,4.72,0.00,20.51,24.75,28.34,14.60,48.20,1011.03,2034.78,2107.29,2081.35,2366.86,599.96,597.76,16.77,0000 0000 0000 0000 000000
2016-12-29 08:39:36,0.20,4.73,0.00,20.52,24.75,28.36,14.60,48.28,1011.04,2034.63,2105.06,2079.74,2365.28,599.90,597.84,16.82,0000 0000 0000 0000 000000
2016-12-29 08:44:37,0.18,4.74,0.00,20.50,24.75,28.35,14.52,48.14,1010.96,2034.64,2102.86,2078.21,2363.50,599.79,597.55,16.87,0000 0000 0000 0000 000000
2016-12-29 08:49:38,0.22,4.75,0.00,20.51,24.75,28.26,14.59,48.20,1010.86,2034.64,2100.48,2076.59,2361.65,600.11,597.79,16.92,0000 0000 0000 0000 000000
2016-12-29 08:54:39,0.19,4.76,0.00,20.52,24.75,28.23,14.58,48.20,1010.81,2034.46,2098.12,2074.90,2359.87,599.96,597.64,16.97,0000 0000 0000 0000 000000
2016-12-29 08:59:41,0.20,4.77,0.00,20.51,24.75,28.35,14.65,48.38,1010.77,2034.71,2095.94,2073.45,2358.26,599.75,597.42,17.02,0000 0000 0000 0000 000000
2016-12-29 09:04:42,0.15,4.78,0.00,20.54,24.75,28.35,14.61,48.27,1010.76,2034.59,2094.01,2072.04,2356.67,599.95,597.49,17.07,0000 0000 0000 0000 000000
2016-12-29 09:09:43,0.17,4.79,0.00,20.51,24.75,28.34,14.53,48.27,1010.76,2034.56,2092.22,2070.71,2355.17,599.71,597.33,17.12,0000 0000 0000 0000 000000
2016-12-29 09:14:45,0.16,4.80,0.00,20.51,24.75,28.33,14.61,48.24,1010.76,2034.57,2090.51,2069.50,2353.80,599.91,597.59,17.17,0000 0000 0000 0000 000000
2016-12-29 09:19:46,0.16,4.81,0.00,20.52,24.75,28.36,14.61,48.36,1010.76,2034.66,2088.83,2068.33,2352.52,599.90,597.49,17.22,0000 0000 0000 0000 000000
2016-12-29 09:24:48,0.12,4.81,0.00,20.50,24.75,28.20,14.58,48.25,1010.76,2034.49,2087.20,2067.10,2351.23,599.97,597.62,17.28,0000 0000 0000 0000 000000
2016-12-29 09:29:49,0.16,4.82,0.00,20.50,24.75,28.28,14.64,48.30,1010.77,2034.59,2085.58,2065.95,2349.90,600.23,597.90,17.33,0000 0000 0000 0000 000000
2016-12-29 09:34:50,0.14,4.83,0.00,20.49,24.75,28.27,14.69,48.42,1010.77,2034.59,2083.96,2064.83,2348.60,600.15,597.75,17.38,0000 0000 0000 0000 000000
2016-12-29 09:39:52,0.17,4.84,0.00,20.50,24.76,28.31,14.66,48.34,1010.78,2034.45,2082.36,2063.48,2346.96,599.81,597.55,17.43,0000 0000 0000 0000 000000
2016-12-29 09:44:53,0.12,4.84,0.00,20.48,24.77,28.26,14.65,48.25,1010.77,2034.27,2080.48,2062.14,2345.46,600.31,598.00,17.48,0000 0000 0000 0000 000000
2016-12-29 09:49:54,0.18,4.85,0.00,20.47,24.77,28.34,14.59,48.39,1010.76,2034.18,2078.53,2060.73,2343.85,599.79,597.41,17.53,0000 0000 0000 0000 000000
2016-12-29 09:54:55,0.19,4.86,0.00,20.48,24.77,28.23,14.60,48.38,1010.76,2034.17,2076.44,2059.27,2342.22,599.79,597.56,17.58,0000 0000 0000 0000 000000
2016-12-29 09:59:57,0.20,4.87,0.00,20.48,24.77,28.13,14.57,48.28,1010.77,2034.10,2074.12,2057.63,2340.41,599.98,597.76,17.63,0000 0000 0000 0000 000000
2016-12-29 10:04:58,0.26,4.88,0.00,20.48,24.77,28.07,14.66,48.38,1010.76,2034.16,2071.30,2055.76,2338.33,600.22,597.95,17.68,0000 0000 0000 0000 000000
2016-12-29 10:09:59,0.28,4.90,0.00,20.48,24.77,28.02,14.59,48.33,1010.76,2034.08,2068.05,2053.50,2335.85,599.85,597.45,17.73,0000 0000 0000 0000 000000
2016-12-29 10:15:01,0.25,4.91,0.00,20.50,24.77,28.24,14.60,48.28,1010.76,2034.07,2065.14,2051.54,2333.58,600.08,597.76,17.78,0000 0000 0000 0000 000000
2016-12-29 10:20:02,0.24,4.93,0.00,20.49,24.77,28.23,14.58,48.33,1010.76,2034.08,2062.55,2049.70,2331.57,599.67,597.35,17.83,0000 0000 0000 0000 000000
2016-12-29 10:25:03,0.27,4.94,0.00,20.49,24.77,28.29,14.61,48.38,1010.76,2034.06,2059.84,2047.69,2329.17,600.07,597.69,17.88,0000 0000 0000 0000 000000
2016-12-29 10:30:05,0.23,4.95,0.00,20.49,24.77,28.29,14.55,48.36,1010.76,2034.05,2056.98,2046.02,2326.99,600.03,597.70,17.93,0000 0000 0000 0000 000000
2016-12-29 10:35:06,0.29,4.97,0.00,20.49,24.77,28.22,14.63,48.34,1010.76,2034.03,2053.92,2043.89,2324.59,599.96,597.57,17.98,0000 0000 0000 0000 000000
2016-12-29 10:40:07,0.31,4.98,0.00,20.49,24.77,28.11,14.65,48.42,1010.76,2034.03,2050.66,2041.59,2321.99,600.26,597.94,18.03,0000 0000 0000 0000 000000
2016-12-29 10:45:09,0.36,5.00,0.00,20.49,24.77,28.26,14.57,48.33,1010.76,2034.04,2046.82,2038.89,2318.82,600.04,597.64,18.08,0000 0000 0000 0000 000000
2016-12-29 10:50:10,0.28,5.01,0.00,20.48,24.77,28.28,14.58,48.27,1010.76,2034.02,2043.65,2036.56,2316.12,599.82,597.40,18.13,0000 0000 0000 0000 000000
2016-12-29 10:55:12,0.27,5.03,0.00,20.48,24.77,28.31,14.63,48.28,1010.74,2034.00,2040.79,2034.50,2313.70,600.18,597.91,18.18,0000 0000 0000 0000 000000
2016-12-29 11:00:13,0.32,5.04,0.00,20.49,24.77,28.27,14.52,48.20,1010.61,2034.00,2037.42,2032.28,2311.17,599.99,597.52,18.23,0000 0000 0000 0000 000000
2016-12-29 11:05:14,0.35,5.06,0.00,20.48,24.77,28.12,14.60,48.33,1010.35,2034.01,2033.67,2029.71,2308.33,600.00,597.50,18.28,0000 0000 0000 0000 000000
2016-12-29 11:10:15,0.37,5.08,0.00,20.49,24.76,28.08,14.56,48.33,1010.28,2034.00,2029.72,2026.99,2305.24,600.04,597.23,18.33,0000 0000 0000 0000 000000
2016-12-29 11:15:16,0.36,5.10,0.00,20.48,24.75,28.21,14.58,48.34,1010.28,2034.01,2025.87,2024.29,2302.24,599.85,597.36,18.38,0000 0000 0000 0000 000000
2016-12-29 11:20:17,0.36,5.12,0.00,20.48,24.75,28.28,14.71,48.30,1010.30,2034.01,2021.94,2021.63,2299.22,600.30,597.77,18.43,0000 0000 0000 0000 000000
2016-12-29 11:25:19,0.39,5.13,0.00,20.48,24.75,28.28,14.64,48.45,1010.29,2034.00,2017.85,2018.76,2295.95,600.04,597.53,18.48,0000 0000 0000 0000 000000
2016-12-29 11:30:20,0.34,5.15,0.00,20.50,24.75,28.28,14.59,48.21,1010.29,2034.00,2014.11,2016.21,2292.87,599.78,597.14,18.53,0000 0000 0000 0000 000000
2016-12-29 11:35:22,0.29,5.17,0.00,20.49,24.75,28.20,14.62,48.37,1010.28,2034.01,2011.04,2013.99,2290.28,600.09,597.60,18.58,0000 0000 0000 0000 000000
2016-12-29 11:40:23,0.28,5.18,0.00,20.48,24.75,28.20,14.62,48.52,1010.27,2034.01,2007.99,2011.84,2287.87,599.98,597.27,18.63,0000 0000 0000 0000 000000
2016-12-29 11:45:24,0.28,5.20,0.00,20.49,24.75,28.28,14.56,48.50,1010.27,2034.01,2004.98,2009.74,2285.49,599.98,597.20,18.68,0000 0000 0000 0000 000000
2016-12-29 11:50:25,0.29,5.21,0.00,20.49,24.75,28.32,14.59,48.49,1010.27,2034.00,2001.94,2007.61,2283.06,599.84,597.17,18.73,0000 0000 0000 0000 000000
2016-12-29 11:55:27,0.30,5.23,0.00,20.49,24.75,28.32,14.72,48.52,1010.27,2034.01,1998.78,2005.37,2280.43,600.27,597.64,18.78,0000 0000 0000 0000 000000
2016-12-29 12:00:28,0.32,5.24,0.00,20.49,24.75,28.30,14.53,48.28,1010.27,2034.00,1995.57,2003.13,2277.85,599.80,597.10,18.83,0000 0000 0000 0000 000000
2016-12-29 12:05:29,0.28,5.26,0.00,20.47,24.75,28.26,14.55,48.21,1010.27,2034.00,1992.57,2001.03,2275.41,599.98,597.23,18.88,0000 0000 0000 0000 000000
2016-12-29 12:10:31,0.25,5.27,0.00,20.48,24.75,28.15,14.66,48.37,1010.27,2034.00,1989.89,1999.15,2273.25,600.38,597.77,18.93,0000 0000 0000 0000 000000
2016-12-29 12:15:32,0.23,5.28,0.00,20.47,24.75,28.25,14.60,48.38,1010.27,2034.00,1987.40,1997.42,2271.24,599.96,597.40,18.98,0000 0000 0000 0000 000000
2016-12-29 12:20:33,0.23,5.30,0.00,20.47,24.75,28.28,14.61,48.29,1010.27,2034.00,1985.14,1995.73,2269.19,599.87,597.24,19.03,0000 0000 0000 0000 000000
2016-12-29 12:25:35,0.33,5.31,0.00,20.47,24.75,28.21,14.57,48.19,1010.27,2034.00,1982.05,1993.69,2266.96,599.92,597.38,19.08,0000 0000 0000 0000 000000
2016-12-29 12:30:37,0.28,5.32,0.00,20.46,24.75,28.14,14.69,48.29,1010.27,2034.00,1978.46,1991.55,2264.59,600.01,597.44,19.13,0000 0000 0000 0000 000000
2016-12-29 12:35:38,0.26,5.34,0.00,20.45,24.74,28.23,14.61,48.31,1010.27,2034.00,1975.47,1989.65,2262.50,600.10,597.51,19.18,0000 0000 0000 0000 000000
2016-12-29 12:40:39,0.22,5.35,0.00,20.44,24.74,28.28,14.64,48.35,1010.27,2034.00,1973.16,1987.92,2260.51,599.87,597.30,19.23,0000 0000 0000 0000 000000
2016-12-29 12:45:40,0.21,5.36,0.00,20.44,24.73,28.29,14.60,48.30,1010.27,2034.00,1971.05,1986.48,2258.72,600.10,597.58,19.28,0000 0000 0000 0000 000000
2016-12-29 12:50:42,0.19,5.37,0.00,20.44,24.73,28.11,14.55,48.23,1010.22,2034.00,1969.06,1985.00,2257.04,599.94,597.39,19.33,0000 0000 0000 0000 000000
2016-12-29 12:55:43,0.19,5.38,0.00,20.46,24.72,28.17,14.66,48.25,1010.06,2034.00,1967.24,1983.68,2255.44,600.22,597.54,19.38,0000 0000 0000 0000 000000